| time (UTC) | temp F | wind direction | speed knots | gust knots | rain 1hr in | rain 24hr in | rain mn in | humidity % | barometer mb |
| 20260903160307 | 95 | 203 | 1.7 | 2.6 | 0.00 | 0.00 | 0.00 | 73 | 1020.6 |
| 20260903155750 | 95 | 203 | 3.5 | 3.5 | 0.00 | 0.00 | 0.00 | 73 | 1020.6 |
| 20260903155146 | 94 | 203 | 2.6 | 3.5 | 0.00 | 0.00 | 0.00 | 73 | 1020.6 |
| 20260903154550 | 94 | 203 | 1.7 | 2.6 | 0.00 | 0.00 | 0.00 | 74 | 1020.6 |
| 20260903153930 | 94 | 158 | 3.5 | 3.5 | 0.00 | 0.00 | 0.00 | 73 | 1020.6 |
| 20260903153332 | 93 | 203 | 1.7 | 2.6 | 0.00 | 0.00 | 0.00 | 74 | 1020.6 |
| 20260903152749 | 94 | 225 | 1.7 | 1.7 | 0.00 | 0.00 | 0.00 | 75 | 1020.6 |
| 20260903152117 | 93 | 135 | 1.7 | 2.6 | 0.00 | 0.00 | 0.00 | 77 | 1020.6 |
| 20260903151534 | 93 | 225 | 0.9 | 2.6 | 0.00 | 0.00 | 0.00 | 77 | 1020.6 |
| 20260903150909 | 91 | 203 | 1.7 | 1.7 | 0.00 | 0.00 | 0.00 | 78 | 1020.6 |
| 20260903150336 | 92 | 0 | 1.7 | 1.7 | 0.00 | 0.00 | 0.00 | 76 | 1020.6 |
| 20260903145721 | 90 | 203 | 0.0 | 1.7 | 0.00 | 0.00 | 0.00 | 80 | 1020.6 |
| 20260903145137 | 90 | 203 | 0.0 | 1.7 | 0.00 | 0.00 | 0.00 | 80 | 1020.6 |
| 20260903144524 | 90 | 180 | 2.6 | 2.6 | 0.00 | 0.00 | 0.00 | 80 | 1020.6 |
| 20260903143911 | 89 | 23 | 1.7 | 2.6 | 0.00 | 0.00 | 0.00 | 80 | 1020.6 |
| 20260903143349 | 89 | 180 | 1.7 | 1.7 | 0.00 | 0.00 | 0.00 | 81 | 1020.6 |
| 20260903142717 | 88 | 203 | 0.0 | 0.9 | 0.00 | 0.00 | 0.00 | 83 | 1020.6 |
| 20260903141520 | 86 | 158 | 1.7 | 1.7 | 0.00 | 0.00 | 0.00 | 85 | 1020.6 |
| 20260903140339 | 85 | 68 | 0.0 | 1.7 | 0.00 | 0.00 | 0.00 | 88 | 1020.9 |
| 20260903135710 | 85 | 270 | 0.0 | 0.9 | 0.00 | 0.00 | 0.00 | 86 | 1020.9 |
| 20260903135149 | 84 | 225 | 0.9 | 1.7 | 0.00 | 0.00 | 0.00 | 89 | 1020.9 |
| 20260903134538 | 84 | 203 | 0.9 | 0.9 | 0.00 | 0.00 | 0.00 | 89 | 1020.9 |
| 20260903133922 | 82 | 225 | 0.9 | 0.9 | 0.00 | 0.00 | 0.00 | 92 | 1020.9 |
| 20260903132118 | 80 | 225 | 0.0 | 0.9 | 0.00 | 0.00 | 0.00 | 95 | 1020.9 |
| 20260903131542 | 80 | 180 | 0.0 | 0.0 | 0.00 | 0.00 | 0.00 | 95 | 1021.3 |
| 20260903130912 | 79 | 203 | 0.0 | 0.0 | 0.00 | 0.00 | 0.00 | 97 | 1021.3 |
| 20260903130309 | 78 | 180 | 0.0 | 0.0 | 0.00 | 0.00 | 0.00 | 99 | 1021.3 |
| 20260903125748 | 78 | 203 | 0.0 | 0.0 | 0.00 | 0.00 | 0.00 | 99 | 1021.6 |
| 20260903125122 | 76 | 45 | 0.0 | 0.0 | 0.00 | 0.00 | 0.00 | 99 | 1021.6 |
| 20260903124521 | 76 | 68 | 0.0 | 0.0 | 0.00 | 0.00 | 0.00 | 99 | 1021.6 |
| 20260903122715 | 75 | 158 | 0.0 | 0.0 | 0.00 | 0.00 | 0.00 | 99 | 1021.3 |
| 20260903122150 | 75 | 293 | 0.0 | 0.0 | 0.00 | 0.00 | 0.00 | 99 | 1021.3 |
| 20260903120946 | 73 | 293 | 0.0 | 0.9 | 0.00 | 0.00 | 0.00 | 99 | 1021.3 |
| 20260903120332 | 72 | 293 | 0.0 | 0.0 | 0.00 | 0.00 | 0.00 | 99 | 1021.3 |
| 20260903115741 | 71 | 270 | 0.0 | 0.0 | 0.00 | 0.00 | 0.00 | 99 | 1021.3 |
| 20260903115112 | 71 | 225 | 0.0 | 0.0 | 0.00 | 0.00 | 0.00 | 99 | 1021.3 |
| 20260903114544 | 71 | 0 | 0.0 | 0.0 | 0.00 | 0.00 | 0.00 | 99 | 1021.3 |
| 20260903113906 | 71 | 270 | 0.0 | 0.9 | 0.00 | 0.00 | 0.00 | 99 | 1020.9 |
| 20260903113322 | 71 | 203 | 0.0 | 0.0 | 0.00 | 0.00 | 0.00 | 99 | 1020.9 |
| 20260903112724 | 71 | 338 | 0.0 | 0.0 | 0.00 | 0.00 | 0.00 | 99 | 1020.9 |
| 20260903112110 | 70 | 248 | 0.0 | 0.0 | 0.00 | 0.00 | 0.00 | 99 | 1020.9 |
| 20260903111518 | 71 | 203 | 0.0 | 0.0 | 0.00 | 0.00 | 0.00 | 99 | 1020.9 |
| 20260903110912 | 71 | 270 | 0.0 | 0.0 | 0.00 | 0.00 | 0.00 | 99 | 1020.6 |
| 20260903110347 | 71 | 158 | 1.7 | 1.7 | 0.00 | 0.00 | 0.00 | 99 | 1020.6 |
| 20260903105709 | 71 | 203 | 0.9 | 0.9 | 0.00 | 0.00 | 0.00 | 99 | 1020.6 |
| 20260903104523 | 70 | 203 | 0.0 | 0.0 | 0.00 | 0.00 | 0.00 | 99 | 1020.6 |
| 20260903103932 | 70 | 203 | 0.0 | 0.0 | 0.00 | 0.00 | 0.00 | 99 | 1020.6 |
| 20260903102724 | 70 | 248 | 0.0 | 0.0 | 0.00 | 0.00 | 0.00 | 99 | 1020.6 |
| 20260903101537 | 71 | 225 | 0.0 | 0.0 | 0.00 | 0.00 | 0.00 | 99 | 1020.3 |
| 20260903100939 | 71 | 203 | 0.0 | 0.0 | 0.00 | 0.00 | 0.00 | 99 | 1020.3 |
| 20260903100316 | 71 | 203 | 0.0 | 0.0 | 0.00 | 0.00 | 0.00 | 99 | 1020.3 |
| 20260903095728 | 71 | 203 | 0.0 | 0.0 | 0.00 | 0.00 | 0.00 | 99 | 1020.3 |
| 20260903093345 | 71 | 270 | 0.0 | 0.0 | 0.00 | 0.00 | 0.00 | 99 | 1020.3 |
| 20260903092706 | 71 | 225 | 0.0 | 0.0 | 0.00 | 0.00 | 0.00 | 99 | 1020.3 |
| 20260903092127 | 71 | 225 | 0.0 | 0.0 | 0.00 | 0.00 | 0.00 | 99 | 1020.3 |
| 20260903091542 | 71 | 203 | 0.0 | 0.0 | 0.00 | 0.00 | 0.00 | 99 | 1020.3 |
| 20260903090914 | 71 | 203 | 0.0 | 0.0 | 0.00 | 0.00 | 0.00 | 99 | 1020.3 |
| 20260903090341 | 71 | 248 | 0.0 | 0.0 | 0.00 | 0.00 | 0.00 | 99 | 1020.3 |
| 20260903085130 | 71 | 203 | 0.0 | 0.0 | 0.00 | 0.00 | 0.00 | 99 | 1020.3 |
| 20260903084549 | 71 | 225 | 0.0 | 0.0 | 0.00 | 0.00 | 0.00 | 99 | 1020.3 |
| 20260903083943 | 71 | 270 | 0.0 | 0.0 | 0.00 | 0.00 | 0.00 | 99 | 1020.3 |
| 20260903083337 | 71 | 248 | 0.0 | 0.0 | 0.00 | 0.00 | 0.00 | 99 | 1020.3 |
| 20260903082709 | 71 | 248 | 0.0 | 0.0 | 0.00 | 0.00 | 0.00 | 99 | 1020.3 |
| 20260903080311 | 72 | 270 | 0.0 | 0.0 | 0.00 | 0.00 | 0.00 | 99 | 1020.3 |
| 20260903075721 | 72 | 225 | 0.0 | 0.0 | 0.00 | 0.00 | 0.00 | 99 | 1020.3 |
| 20260903074521 | 72 | 203 | 0.0 | 0.0 | 0.00 | 0.00 | 0.00 | 99 | 1020.3 |
| 20260903073915 | 72 | 248 | 0.0 | 0.0 | 0.00 | 0.00 | 0.00 | 99 | 1020.3 |
| 20260903073311 | 72 | 225 | 0.0 | 0.0 | 0.00 | 0.00 | 0.00 | 99 | 1020.3 |
| 20260903072115 | 72 | 0 | 0.0 | 0.0 | 0.00 | 0.00 | 0.00 | 99 | 1019.9 |
| 20260903071506 | 72 | 45 | 0.0 | 0.0 | 0.00 | 0.00 | 0.00 | 99 | 1019.9 |
| 20260903070338 | 72 | 225 | 0.0 | 0.0 | 0.00 | 0.00 | 0.00 | 99 | 1020.3 |
| 20260903064530 | 73 | 203 | 0.0 | 0.0 | 0.00 | 0.00 | 0.00 | 99 | 1020.3 |
| 20260903063923 | 72 | 203 | 0.0 | 1.7 | 0.00 | 0.00 | 0.00 | 99 | 1019.9 |
| 20260903063349 | 72 | 113 | 0.0 | 0.0 | 0.00 | 0.00 | 0.00 | 99 | 1019.9 |
| 20260903062738 | 72 | 270 | 0.0 | 0.0 | 0.00 | 0.00 | 0.00 | 99 | 1019.9 |
| 20260903061509 | 72 | 225 | 0.0 | 0.0 | 0.00 | 0.00 | 0.00 | 99 | 1019.9 |
| 20260903055742 | 73 | 248 | 0.0 | 0.0 | 0.00 | 0.00 | 0.00 | 99 | 1020.3 |
| 20260903055123 | 73 | 203 | 0.0 | 0.0 | 0.00 | 0.00 | 0.00 | 99 | 1020.3 |
| 20260903054511 | 73 | 203 | 0.0 | 0.0 | 0.00 | 0.00 | 0.00 | 99 | 1019.9 |
| 20260903053912 | 73 | 203 | 0.0 | 0.0 | 0.00 | 0.00 | 0.00 | 99 | 1020.3 |
| 20260903053326 | 73 | 203 | 0.0 | 0.0 | 0.00 | 0.00 | 0.00 | 99 | 1020.3 |
| 20260903052716 | 73 | 225 | 0.0 | 0.0 | 0.00 | 0.00 | 0.00 | 99 | 1020.3 |
| 20260903052140 | 73 | 225 | 0.0 | 0.0 | 0.00 | 0.00 | 0.00 | 99 | 1020.3 |
| 20260903051516 | 73 | 203 | 0.0 | 0.0 | 0.00 | 0.00 | 0.00 | 99 | 1020.3 |
| 20260903050946 | 73 | 225 | 0.0 | 0.0 | 0.00 | 0.00 | 0.00 | 99 | 1020.3 |
| 20260903050316 | 73 | 248 | 0.0 | 0.0 | 0.00 | 0.00 | 0.00 | 99 | 1020.3 |
| 20260903045748 | 73 | 293 | 0.0 | 0.0 | 0.00 | 0.00 | 0.00 | 99 | 1019.9 |
| 20260903045134 | 73 | 113 | 0.0 | 0.0 | 0.00 | 0.00 | 0.00 | 99 | 1019.9 |
| 20260903044533 | 74 | 225 | 0.0 | 0.0 | 0.00 | 0.00 | 0.00 | 99 | 1020.3 |
| 20260903043325 | 74 | 225 | 0.0 | 0.0 | 0.00 | 0.00 | 0.00 | 99 | 1020.3 |
| 20260903042124 | 74 | 270 | 0.0 | 0.0 | 0.00 | 0.00 | 0.00 | 99 | 1020.3 |
| 20260903041529 | 74 | 203 | 0.0 | 0.0 | 0.00 | 0.00 | 0.00 | 99 | 1020.3 |
| 20260903040939 | 74 | 225 | 0.0 | 0.0 | 0.00 | 0.00 | 0.00 | 99 | 1020.3 |
| 20260903040314 | 74 | 225 | 0.0 | 0.0 | 0.00 | 0.00 | 0.00 | 99 | 1020.3 |
| 20260903035743 | 74 | 225 | 0.0 | 0.0 | 0.00 | 0.00 | 0.00 | 99 | 1020.3 |
| 20260903035135 | 74 | 203 | 0.0 | 0.0 | 0.00 | 0.00 | 0.00 | 99 | 1020.3 |
| 20260903034513 | 74 | 203 | 0.0 | 0.0 | 0.00 | 0.00 | 0.00 | 99 | 1020.3 |
| 20260903033911 | 74 | 203 | 0.0 | 0.0 | 0.00 | 0.00 | 0.00 | 99 | 1020.3 |
| 20260903033312 | 74 | 203 | 0.0 | 0.0 | 0.00 | 0.00 | 0.00 | 99 | 1020.3 |
| 20260903032713 | 75 | 203 | 0.0 | 0.0 | 0.00 | 0.00 | 0.00 | 99 | 1020.3 |
| 20260903032137 | 75 | 225 | 0.0 | 0.0 | 0.00 | 0.00 | 0.00 | 99 | 1020.3 |
| 20260903031547 | 75 | 225 | 0.0 | 0.0 | 0.00 | 0.00 | 0.00 | 99 | 1020.3 |
| 20260903030924 | 75 | 225 | 0.0 | 0.0 | 0.00 | 0.00 | 0.00 | 99 | 1020.3 |
| 20260903030322 | 75 | 248 | 0.0 | 0.0 | 0.00 | 0.00 | 0.00 | 99 | 1020.3 |
| 20260903025125 | 75 | 203 | 0.0 | 0.0 | 0.00 | 0.00 | 0.00 | 99 | 1020.3 |
| 20260903024531 | 75 | 248 | 0.0 | 0.0 | 0.00 | 0.00 | 0.00 | 99 | 1020.3 |
| 20260903023946 | 76 | 270 | 0.0 | 0.0 | 0.00 | 0.00 | 0.00 | 99 | 1020.3 |
| 20260903023331 | 76 | 23 | 0.0 | 0.0 | 0.00 | 0.00 | 0.00 | 99 | 1020.3 |
| 20260903022714 | 76 | 225 | 0.0 | 0.0 | 0.00 | 0.00 | 0.00 | 99 | 1020.6 |
| 20260903022143 | 76 | 315 | 0.0 | 0.0 | 0.00 | 0.00 | 0.00 | 99 | 1020.3 |
| 20260903021535 | 76 | 225 | 0.0 | 0.0 | 0.00 | 0.00 | 0.00 | 99 | 1020.3 |
| 20260903020909 | 76 | 225 | 0.0 | 0.0 | 0.00 | 0.00 | 0.00 | 99 | 1020.3 |
| 20260903020345 | 76 | 225 | 0.0 | 0.0 | 0.00 | 0.00 | 0.00 | 99 | 1020.3 |
| 20260903014529 | 77 | 225 | 1.7 | 1.7 | 0.00 | 0.00 | 0.00 | 99 | 1020.3 |
| 20260903013913 | 77 | 225 | 0.0 | 0.0 | 0.00 | 0.00 | 0.00 | 99 | 1019.9 |
| 20260903012719 | 77 | 203 | 0.9 | 0.9 | 0.00 | 0.00 | 0.00 | 99 | 1019.9 |
| 20260903012116 | 78 | 270 | 0.0 | 0.9 | 0.00 | 0.00 | 0.00 | 99 | 1019.9 |
| 20260903011516 | 78 | 225 | 0.0 | 0.0 | 0.00 | 0.00 | 0.00 | 99 | 1019.9 |
| 20260903010932 | 78 | 225 | 2.6 | 2.6 | 0.00 | 0.00 | 0.00 | 99 | 1019.6 |
| 20260903010347 | 78 | 203 | 1.7 | 1.7 | 0.00 | 0.00 | 0.00 | 99 | 1019.9 |
| 20260903005737 | 78 | 203 | 1.7 | 1.7 | 0.00 | 0.00 | 0.00 | 99 | 1019.6 |
| 20260903005112 | 79 | 203 | 0.0 | 0.0 | 0.00 | 0.00 | 0.00 | 99 | 1019.6 |
| 20260903004510 | 79 | 225 | 0.9 | 1.7 | 0.00 | 0.00 | 0.00 | 99 | 1019.6 |
| 20260903003930 | 79 | 225 | 1.7 | 1.7 | 0.00 | 0.00 | 0.00 | 99 | 1019.6 |
| 20260903003317 | 80 | 203 | 2.6 | 2.6 | 0.00 | 0.00 | 0.00 | 99 | 1019.6 |
| 20260903002744 | 80 | 225 | 1.7 | 1.7 | 0.00 | 0.00 | 0.00 | 98 | 1019.6 |
| 20260903001505 | 81 | 225 | 1.7 | 1.7 | 0.00 | 0.00 | 0.00 | 96 | 1019.3 |
| 20260903000931 | 81 | 225 | 1.7 | 2.6 | 0.00 | 0.00 | 0.00 | 96 | 1019.3 |
| 20260903000344 | 82 | 225 | 0.0 | 0.9 | 0.00 | 0.00 | 0.00 | 94 | 1019.3 |
| 20260902235720 | 82 | 203 | 1.7 | 1.7 | 0.00 | 0.00 | 0.00 | 94 | 1019.3 |
| 20260902235116 | 83 | 180 | 1.7 | 1.7 | 0.00 | 0.00 | 0.00 | 93 | 1019.3 |
| 20260902234516 | 83 | 203 | 1.7 | 1.7 | 0.00 | 0.00 | 0.00 | 92 | 1019.3 |
| 20260902233910 | 84 | 203 | 1.7 | 1.7 | 0.00 | 0.00 | 0.00 | 89 | 1019.3 |
| 20260902233347 | 85 | 203 | 0.9 | 1.7 | 0.00 | 0.00 | 0.00 | 86 | 1019.3 |
| 20260902232721 | 86 | 225 | 1.7 | 2.6 | 0.00 | 0.00 | 0.00 | 85 | 1019.3 |
| 20260902231506 | 88 | 203 | 1.7 | 1.7 | 0.00 | 0.00 | 0.00 | 81 | 1019.3 |
| 20260902230925 | 91 | 225 | 1.7 | 2.6 | 0.00 | 0.00 | 0.00 | 75 | 1019.3 |
| 20260902225744 | 90 | 203 | 3.5 | 3.5 | 0.00 | 0.00 | 0.00 | 76 | 1019.3 |
| 20260902225108 | 92 | 180 | 2.6 | 2.6 | 0.00 | 0.00 | 0.00 | 72 | 1019.3 |
| 20260902224527 | 93 | 225 | 1.7 | 2.6 | 0.00 | 0.00 | 0.00 | 71 | 1019.3 |
| 20260902223919 | 94 | 225 | 2.6 | 3.5 | 0.00 | 0.00 | 0.00 | 70 | 1019.3 |
| 20260902223305 | 94 | 225 | 1.7 | 2.6 | 0.00 | 0.00 | 0.00 | 70 | 1019.3 |
| 20260902222712 | 94 | 180 | 2.6 | 2.6 | 0.00 | 0.00 | 0.00 | 69 | 1019.3 |
| 20260902222134 | 94 | 225 | 3.5 | 3.5 | 0.00 | 0.00 | 0.00 | 69 | 1019.3 |
| 20260902221527 | 95 | 203 | 3.5 | 3.5 | 0.00 | 0.00 | 0.00 | 67 | 1019.3 |
| 20260902220948 | 96 | 203 | 2.6 | 3.5 | 0.00 | 0.00 | 0.00 | 66 | 1019.3 |
| 20260902220308 | 97 | 158 | 1.7 | 3.5 | 0.00 | 0.00 | 0.00 | 63 | 1019.3 |
| 20260902215711 | 96 | 180 | 3.5 | 3.5 | 0.00 | 0.00 | 0.00 | 64 | 1019.3 |
| 20260902215144 | 104 | 225 | 2.6 | 3.5 | 0.00 | 0.00 | 0.00 | 55 | 1019.6 |
| 20260902214509 | 104 | 203 | 2.6 | 2.6 | 0.00 | 0.00 | 0.00 | 54 | 1019.3 |
| 20260902213936 | 101 | 0 | 0.0 | 2.6 | 0.00 | 0.00 | 0.00 | 54 | 1019.3 |
| 20260902213338 | 104 | 203 | 1.7 | 2.6 | 0.00 | 0.00 | 0.00 | 52 | 1019.3 |
| 20260902212731 | 102 | 0 | 0.9 | 2.6 | 0.00 | 0.00 | 0.00 | 52 | 1019.3 |
| 20260902212120 | 102 | 225 | 1.7 | 2.6 | 0.00 | 0.00 | 0.00 | 52 | 1019.3 |
| 20260902211528 | 102 | 45 | 3.5 | 3.5 | 0.00 | 0.00 | 0.00 | 54 | 1019.6 |
| 20260902210346 | 104 | 203 | 1.7 | 3.5 | 0.00 | 0.00 | 0.00 | 51 | 1019.6 |
| 20260902205741 | 105 | 180 | 0.9 | 1.7 | 0.00 | 0.00 | 0.00 | 51 | 1019.6 |
| 20260902205127 | 106 | 203 | 0.9 | 2.6 | 0.00 | 0.00 | 0.00 | 51 | 1019.6 |
| 20260902203932 | 102 | 225 | 1.7 | 1.7 | 0.00 | 0.00 | 0.00 | 53 | 1019.9 |
| 20260902203344 | 104 | 225 | 1.7 | 3.5 | 0.00 | 0.00 | 0.00 | 51 | 1019.6 |
| 20260902202149 | 104 | 225 | 0.0 | 0.0 | 0.00 | 0.00 | 0.00 | 54 | 1019.6 |
| 20260902201522 | 106 | 248 | 1.7 | 2.6 | 0.00 | 0.00 | 0.00 | 50 | 1019.9 |
| 20260902200942 | 105 | 45 | 1.7 | 3.5 | 0.00 | 0.00 | 0.00 | 48 | 1019.9 |
| 20260902200323 | 105 | 158 | 2.6 | 4.3 | 0.00 | 0.00 | 0.00 | 51 | 1019.9 |
| 20260902195722 | 102 | 248 | 0.0 | 2.6 | 0.00 | 0.00 | 0.00 | 51 | 1019.9 |
| 20260902193930 | 102 | 45 | 0.0 | 3.5 | 0.00 | 0.00 | 0.00 | 56 | 1020.3 |
| 20260902192730 | 101 | 203 | 2.6 | 3.5 | 0.00 | 0.00 | 0.00 | 58 | 1020.3 |
| 20260902192136 | 100 | 203 | 2.6 | 2.6 | 0.00 | 0.00 | 0.00 | 59 | 1020.3 |
| 20260902191520 | 103 | 225 | 3.5 | 3.5 | 0.00 | 0.00 | 0.00 | 54 | 1020.3 |
| 20260902190935 | 102 | 225 | 3.5 | 4.3 | 0.00 | 0.00 | 0.00 | 58 | 1020.3 |
| 20260902190313 | 99 | 158 | 3.5 | 4.3 | 0.00 | 0.00 | 0.00 | 59 | 1020.6 |
| 20260902185110 | 100 | 203 | 2.6 | 3.5 | 0.00 | 0.00 | 0.00 | 57 | 1020.6 |
| 20260902184516 | 104 | 45 | 0.9 | 0.9 | 0.00 | 0.00 | 0.00 | 50 | 1020.6 |
| 20260902183328 | 103 | 315 | 1.7 | 2.6 | 0.00 | 0.00 | 0.00 | 53 | 1020.6 |
| 20260902182735 | 102 | 135 | 2.6 | 3.5 | 0.00 | 0.00 | 0.00 | 55 | 1020.6 |
| 20260902182144 | 101 | 90 | 3.5 | 3.5 | 0.00 | 0.00 | 0.00 | 57 | 1020.6 |
| 20260902181524 | 98 | 90 | 1.7 | 1.7 | 0.00 | 0.00 | 0.00 | 60 | 1020.9 |
| 20260902180917 | 97 | 293 | 2.6 | 2.6 | 0.00 | 0.00 | 0.00 | 60 | 1020.9 |
| 20260902175722 | 98 | 23 | 2.6 | 3.5 | 0.00 | 0.00 | 0.00 | 58 | 1020.9 |
| 20260902175149 | 97 | 270 | 1.7 | 2.6 | 0.00 | 0.00 | 0.00 | 60 | 1020.9 |
| 20260902174513 | 97 | 338 | 2.6 | 2.6 | 0.00 | 0.00 | 0.00 | 58 | 1021.3 |
| 20260902173913 | 97 | 90 | 0.9 | 2.6 | 0.00 | 0.00 | 0.00 | 62 | 1021.3 |
| 20260902173324 | 96 | 23 | 2.6 | 3.5 | 0.00 | 0.00 | 0.00 | 60 | 1021.6 |
| 20260902172743 | 95 | 23 | 4.3 | 4.3 | 0.00 | 0.00 | 0.00 | 61 | 1021.6 |
| 20260902171515 | 95 | 270 | 1.7 | 1.7 | 0.00 | 0.00 | 0.00 | 61 | 1022.0 |
| 20260902170937 | 95 | 203 | 3.5 | 3.5 | 0.00 | 0.00 | 0.00 | 60 | 1022.0 |
| 20260902165724 | 94 | 0 | 0.9 | 0.9 | 0.00 | 0.00 | 0.00 | 63 | 1022.0 |
| 20260902165116 | 94 | 23 | 0.9 | 1.7 | 0.00 | 0.00 | 0.00 | 63 | 1022.0 |
| 20260902164509 | 94 | 23 | 4.3 | 4.3 | 0.00 | 0.00 | 0.00 | 63 | 1022.0 |
| 20260902163912 | 94 | 23 | 1.7 | 3.5 | 0.00 | 0.00 | 0.00 | 65 | 1022.3 |
| 20260902162746 | 95 | 225 | 1.7 | 2.6 | 0.00 | 0.00 | 0.00 | 64 | 1022.3 |
| 20260902161510 | 95 | 203 | 2.6 | 2.6 | 0.00 | 0.00 | 0.00 | 65 | 1022.6 |
| 20260902160909 | 95 | 180 | 1.7 | 2.6 | 0.00 | 0.00 | 0.00 | 68 | 1022.6 |